TimePDT,TemperatureF,Dew PointF,Humidity,Sea Level PressureIn,VisibilityMPH,Wind Direction,Wind SpeedMPH,Gust SpeedMPH,PrecipitationIn,Events,Conditions,WindDirDegrees,DateUTC
12:53 AM,44.1,33.1,65,29.80,10.0,SSW,11.5,-,N/A,,Overcast,200,2013-04-07 07:53:00
1:53 AM,43.0,35.1,74,29.78,10.0,SSW,10.4,-,0.00,,Overcast,210,2013-04-07 08:53:00
2:53 AM,42.1,36.0,79,29.75,10.0,South,6.9,-,0.00,Rain,Light Rain,180,2013-04-07 09:53:00
3:53 AM,41.0,37.0,86,29.71,10.0,SSE,5.8,-,0.00,,Overcast,160,2013-04-07 10:53:00
4:53 AM,39.9,37.0,89,29.68,9.0,SE,5.8,-,0.01,Rain,Light Rain,140,2013-04-07 11:53:00
5:19 AM,39.2,37.4,93,29.66,7.0,SE,6.9,-,0.01,Rain,Light Rain,140,2013-04-07 12:19:00
5:53 AM,39.9,37.9,93,29.66,6.0,ESE,6.9,-,0.03,Rain,Light Rain,120,2013-04-07 12:53:00
6:53 AM,39.0,37.0,93,29.64,4.0,ESE,5.8,-,0.05,Rain,Light Rain,120,2013-04-07 13:53:00
7:53 AM,39.0,37.0,93,29.62,7.0,ESE,9.2,-,0.05,Rain,Rain,110,2013-04-07 14:53:00
8:41 AM,39.2,35.6,87,29.58,5.0,ESE,11.5,-,0.06,Rain,Light Rain,110,2013-04-07 15:41:00
8:53 AM,39.0,36.0,89,29.59,4.0,ESE,9.2,-,0.06,Rain,Light Rain,110,2013-04-07 15:53:00
9:53 AM,41.0,37.9,89,29.57,10.0,ESE,9.2,-,0.01,,Overcast,120,2013-04-07 16:53:00
10:26 AM,42.8,39.2,87,29.54,8.0,SE,9.2,-,0.00,Rain,Light Rain,140,2013-04-07 17:26:00
10:53 AM,44.1,41.0,89,29.55,10.0,SSE,10.4,-,0.02,Rain,Light Rain,150,2013-04-07 17:53:00
11:32 AM,46.4,41.0,81,29.53,1.5,SSW,27.6,44.9,0.00,Rain,Light Rain,210,2013-04-07 18:32:00
11:40 AM,44.6,39.2,81,29.53,2.0,SW,13.8,36.8,0.02,Rain,Light Rain,230,2013-04-07 18:40:00
11:46 AM,44.6,41.0,87,29.53,7.0,SW,11.5,-,0.03,Rain,Light Rain,220,2013-04-07 18:46:00
11:53 AM,46.0,42.1,86,29.54,10.0,SSW,12.7,-,0.03,Rain,Light Rain,210,2013-04-07 18:53:00
12:45 PM,46.4,39.2,76,29.53,10.0,SSW,19.6,29.9,0.00,Rain,Light Rain,210,2013-04-07 19:45:00
12:53 PM,46.9,39.9,77,29.54,10.0,SSW,19.6,32.2,0.00,,Mostly Cloudy,200,2013-04-07 19:53:00
1:20 PM,44.6,39.2,81,29.53,6.0,SW,19.6,35.7,0.01,Rain,Rain,230,2013-04-07 20:20:00
1:46 PM,48.2,39.2,71,29.53,10.0,SW,25.3,36.8,0.02,,Mostly Cloudy,230,2013-04-07 20:46:00
1:53 PM,48.0,39.0,71,29.54,10.0,SW,24.2,36.8,0.02,Rain,Light Rain,220,2013-04-07 20:53:00
2:53 PM,48.9,35.1,59,29.56,10.0,WSW,28.8,39.1,0.00,,Mostly Cloudy,240,2013-04-07 21:53:00
3:53 PM,48.0,33.1,56,29.60,10.0,WSW,23.0,32.2,N/A,,Mostly Cloudy,250,2013-04-07 22:53:00
4:53 PM,48.0,32.0,54,29.63,10.0,WSW,20.7,-,N/A,,Mostly Cloudy,250,2013-04-07 23:53:00
5:53 PM,48.0,30.0,50,29.64,10.0,SW,20.7,-,N/A,,Mostly Cloudy,230,2013-04-08 00:53:00
6:53 PM,46.0,30.0,54,29.66,10.0,SW,10.4,-,N/A,,Overcast,220,2013-04-08 01:53:00
7:53 PM,43.0,32.0,65,29.68,10.0,South,10.4,-,N/A,,Overcast,180,2013-04-08 02:53:00
8:53 PM,41.0,32.0,70,29.71,10.0,South,11.5,18.4,N/A,,Mostly Cloudy,180,2013-04-08 03:53:00
9:53 PM,39.9,34.0,79,29.74,10.0,South,10.4,19.6,N/A,,Mostly Cloudy,180,2013-04-08 04:53:00
10:53 PM,39.0,33.1,79,29.74,10.0,South,10.4,-,N/A,,Mostly Cloudy,170,2013-04-08 05:53:00
11:53 PM,37.0,33.1,86,29.76,10.0,South,6.9,-,N/A,,Mostly Cloudy,170,2013-04-08 06:53:00